Accueil
METAR-TAF:

METAR-TAF

Aéroports :

Albenga, Italie

Aéroport international de Villanova d'Albenga

latitude: 44-03N, longitude: 008-07E, altitude: 45 m

Observation

Le bulletin a été fait il y a 25 minutes, à 10:50 UTC
Vent calme
Température 14°C
Humidité 88%
Pression 1012 hPa
Visibilité: 8000 m
Nuages épars à une hauteur de 1500 ft
Nuages épars à une hauteur de 4500 ft

METAR: LIMG 251050Z 00000KT 8000 SCT015 SCT045 14/12 Q1012

Heure: 12:15 (11:15 UTC)


TAF: absent

Observations et prévisions météorologiques de plus de 4000 aéroports (messages METAR et TAF).

Les stations disponibles sont représentées par des disques jaunes et rouges sur la carte.

Passer la souris dessus pour voir le nom de la station.

Cliquer dessus pour voir les observations et prévisions météorologiques.

Pour changer de carte: cliquez sur les boutons verts avec une croix noire pour zoomer, sur le bouton vert avec un tiret pour effectuer un zoom arrière, ou sur les flèches vertes pour les cartes adjacentes.


METAR-TAF: